This demonstration page uses our WeatherBlox Daily Observations layout. Learn more.

Left ArrowRight Arrow

41.55636, -103.73856

Hourly Observations for June 23, 2015

Temp ( °F °C ) Dew Point ( °F °C ) Humidity (%) Winds ( mph kmh ) Pressure ( in mb ) Visibility ( mi km ) Precip ( " mm )
12:53 am 00:53 Clear 63 17.2 51 10.6 65 65 ESE 10 17 30.01 1016 10 16.0934 0 0
1:53 am 01:53 Clear 61 16.1 51 10.6 70 70 ESE 12 19 30.01 1016 10 16.0934 0 0
2:53 am 02:53 Clear 59 15 51 10.6 75 75 ESE 9 15 30.02 1017 10 16.0934 0 0
3:53 am 03:53 Clear 59 15 50 10 72 72 ESE 8 13 30.01 1016 10 16.0934 0 0
4:53 am 04:53 Clear 58 14.4 49 9.4 72 72 ESE 9 15 30.01 1016 10 16.0934 0 0
5:53 am 05:53 Sunny 61 16.1 49 9.4 65 65 SE 10 17 30.03 1017 10 16.0934 0 0
6:53 am 06:53 Sunny 64 17.8 49 9.4 58 58 SSE 12 19 30.05 1018 10 16.0934 0 0
7:53 am 07:53 Mostly Sunny 67 19.4 50 10 55 55 SSE 13 20 30.05 1018 10 16.0934 0 0
8:11 am 08:11 Mostly Cloudy 68 20 50 10 53 53 SSE 13 20 29.97 1015 10 16.0934 0 0
8:20 am 08:20 Partly Cloudy 70 21 50 10 50 50 SSE 17 28 29.97 1015 10 16.0934 0 0
8:53 am 08:53 Partly Cloudy 69 20.6 51 10.6 53 53 SSE 17 28 30.06 1018 10 16.0934 0 0
9:53 am 09:53 Partly Cloudy 74 23.3 55 12.8 52 52 SSE 18 30 30.04 1017 10 16.0934 0 0
10:53 am 10:53 Sunny 76 24.4 56 13.3 50 50 SSE 16 26 30.02 1017 10 16.0934 0 0
11:53 am 11:53 Sunny 79 26.1 57 13.9 47 47 SSE 14 22 30 1016 10 16.0934 0 0
12:53 pm 12:53 Sunny 82 27.8 58 14.4 44 44 SSE 12 19 29.98 1015 10 16.0934 0 0
1:53 pm 13:53 Sunny 84 28.9 59 15 43 43 SE 14 22 29.96 1014 10 16.0934 0 0
2:53 pm 14:53 Sunny 84 28.9 58 14.4 41 41 SE 10 17 29.94 1014 10 16.0934 0 0
3:53 pm 15:53 Sunny 85 29.4 60 15.6 43 43 SE 13 20 29.92 1013 10 16.0934 0 0
4:53 pm 16:53 Sunny 86 30 61 16.1 43 43 ESE 18 30 29.91 1013 10 16.0934 0 0
5:53 pm 17:53 Sunny 84 28.9 59 15 43 43 ESE 18 30 29.9 1012 10 16.0934 0 0
6:53 pm 18:53 Sunny 79 26.1 59 15 50 50 SE 18 30 29.9 1013 10 16.0934 0 0
7:53 pm 19:53 Sunny 76 24.4 58 14.4 54 54 ESE 20 31 29.91 1013 10 16.0934 0 0
8:53 pm 20:53 Clear 73 22.8 57 13.9 57 57 ESE 22 35 29.92 1013 10 16.0934 0 0
9:53 pm 21:53 Clear 70 21.1 57 13.9 64 64 ESE 17 28 29.94 1014 10 16.0934 0 0
10:53 pm 22:53 Clear 67 19.4 57 13.9 71 71 ESE 14 22 29.93 1014 10 16.0934 0 0
11:53 pm 23:53 Clear 66 18.9 57 13.9 73 73 SE 18 30 29.95 1014 10 16.0934 0 0

Powered by AerisWeather